Regional Weather Roundup
Issued by NWS

Home | Current Version | Previous Version | Graphics & Text | Print | Product List | Glossary On
Versions: 1 2 3 4 5 6 7 8 9 10 11 12 13 14 15 16 17 18 19 20 21 22 23 24 25 26 27
000
ASUS45 KCYS 290710
RWRWY

WYOMING REGIONAL WEATHER ROUNDUP
NATIONAL WEATHER SERVICE CHEYENNE WY
100 AM MDT MON MAY 29 2017

NOTE:  "FAIR" INDICATES FEW OR NO CLOUDS BELOW 12,000 FEET
WITH NO SIGNIFICANT WEATHER AND/OR OBSTRUCTIONS TO VISIBILITY.

WYZ001-290800-
YELLOWSTONE NATIONAL PARK

CITY           SKY/WX    TMP DP  RH WIND       PRES   REMARKS
LK YELLOWSTONE   N/A     32  31  96 CALM      30.39F
W YELLOWSTONE  NOT AVBL

$$
WYZ002>013-054>058-071-098>099-290800-
NORTHERN WYOMING

CITY           SKY/WX    TMP DP  RH WIND       PRES   REMARKS
JACKSON        FAIR      46  37  71 NE6       30.32S
CODY           MOCLDY    51  42  71 SW3       30.29F
GREYBULL       MOCLDY    55  42  61 W8        30.22S
WORLAND        CLOUDY    51  47  86 SW3       30.24R
SHERIDAN       FAIR      48  40  73 NW7       30.20S
BUFFALO        FAIR      52  36  54 W13       30.23S
GILLETTE       FAIR      48  42  80 W14       30.18S
HULETT         FAIR      52  37  58 W5        30.18S
NEWCASTLE      FAIR      45  37  76 N9        30.18R

$$
WYZ014>020-022>026-101>103-290800-
CENTRAL WYOMING

CITY           SKY/WX    TMP DP  RH WIND       PRES   REMARKS
BIG PINEY      FAIR      41  31  67 W3        30.33R
PINEDALE       FAIR      37  32  81 CALM      30.33R
DUBOIS         FAIR      41  32  70 W8        30.35S
LANDER         FAIR      47  41  80 N7        30.29S
RIVERTON       MOCLDY    52  41  66 CALM      30.30R
CASPER         FAIR      45  44  97 SW9       30.27F
DOUGLAS        CLOUDY    48  43  82 NW9       30.24F

$$
WYZ021-027>030-104>119-290800-
SOUTHERN WYOMING

CITY           SKY/WX    TMP DP  RH WIND       PRES   REMARKS
EVANSTON       FAIR      51  29  42 S6        30.31S
KEMMERER         N/A     43  34  70 N9        30.32R
FORT BRIDGER   FAIR      50  30  45 W7        30.33S
ROCK SPRINGS   FAIR      46  36  68 E13       30.32R
DIXON            N/A     46  32  59 SE10      30.31S
RAWLINS        CLOUDY    46  37  71 CALM      30.33F
SARATOGA       PTSUNNY   41  36  81 CALM      30.34R
LARAMIE        CLOUDY    42  37  82 W10       30.33F
CHEYENNE       MOCLDY    48  39  71 W14       30.28S
TORRINGTON     FAIR      51  42  71 NW12      30.18S
PINE BLUFFS    PTSUNNY   46  41  81 NW6       30.24F

$$




USA.gov is the U.S. government's official web portal to all federal, state and local government web resources and services.